This demonstration page uses our WeatherBlox Daily Observations layout. Learn more.

Left ArrowRight Arrow

40.97296, -117.73568

Hourly Observations for August 8, 2020

Temp ( °F °C ) Dew Point ( °F °C ) Humidity (%) Winds ( mph kmh ) Pressure ( in mb ) Visibility ( mi km ) Precip ( " mm )
12:56 am 00:56 Clear 66 18.9 28 -2.2 24 24 NNW 7 11 29.93 1014 10 16 0.00 0.00
1:56 am 01:56 Clear 66 18.9 25 -3.9 21 21 NW 6 9 29.93 1013 10 16 0.00 0.00
2:56 am 02:56 Clear 62 16.7 24 -4.4 23 23 NW 5 7 29.94 1014 10 16 0.00 0.00
3:56 am 03:56 Clear 60 15.6 21 -6.1 22 22 W 5 7 29.94 1014 10 16 0.00 0.00
4:56 am 04:56 Clear 60 15.6 20 -6.7 21 21 Calm 29.95 1014 10 16 0.00 0.00
5:56 am 05:56 Sunny 54 12.2 19 -7.2 25 25 WNW 7 11 29.97 1015 10 16 0.00 0.00
6:56 am 06:56 Sunny 65 18.3 22 -5.6 19 19 Calm 29.97 1015 10 16 0.00 0.00
7:56 am 07:56 Sunny 70 21.1 24 -4.4 18 18 Calm 29.98 1015 10 16 0.00 0.00
8:56 am 08:56 Sunny 75 23.9 25 -3.9 15 15 N 8 13 29.98 1015 10 16 0.00 0.00
9:56 am 09:56 Sunny 81 27.2 22 -5.6 11 11 N 10 17 29.96 1015 10 16 0.00 0.00
10:56 am 10:56 Sunny 85 29.4 24 -4.4 11 11 N 8 13 29.95 1014 10 16 0.00 0.00
11:56 am 11:56 Sunny 88 31.1 28 -2.2 11 11 Calm 29.93 1014 10 16 0.00 0.00
12:56 pm 12:56 Sunny 92 33.3 30 -1.1 11 11 Calm 29.92 1013 10 16 0.00 0.00
1:56 pm 13:56 Sunny 92 33.3 30 -1.1 11 11 SSW 9 15 29.91 1013 10 16 0.00 0.00
2:56 pm 14:56 Sunny 95 35 30 -1.1 10 10 NNW 8 13 29.89 1012 10 16 0.00 0.00
3:56 pm 15:56 Mostly Sunny 93 33.9 29 -1.7 10 10 VRB 5 7 29.88 1012 10 16 0.00 0.00
4:56 pm 16:56 Mostly Sunny 95 35 29 -1.7 9 9 W 8 13 29.87 1011 10 16 0.00 0.00
5:56 pm 17:56 Sunny 94 34.4 28 -2.2 9 9 NNW 10 17 29.87 1012 10 16 0.00 0.00
6:56 pm 18:56 Sunny 92 33.3 28 -2.2 10 10 NNW 8 13 29.85 1011 10 16 0.00 0.00
7:56 pm 19:56 Sunny 85 29.4 29 -1.7 13 13 NNW 7 11 29.86 1011 10 16 0.00 0.00
8:56 pm 20:56 Clear 73 22.8 30 -1.1 20 20 SSE 6 9 29.89 1012 10 16 0.00 0.00
9:56 pm 21:56 Clear 70 21.1 30 -1.1 23 23 Calm 29.90 1012 10 16 0.00 0.00
10:56 pm 22:56 Clear 67 19.4 31 -0.6 26 26 ESE 3 6 29.89 1012 10 16 0.00 0.00
11:56 pm 23:56 Clear 60 15.6 26 -3.3 27 27 SW 5 7 29.91 1013 10 16 0.00 0.00

Powered by AerisWeather